World > North America > United States > Missouri

Saint Louis, Missouri Regional Weather

Lat: 38.64N, Lon: 90.24W
Wx Zone: MOZ064
Warning NWS WEATHER ALERT - (More Info. Click Here) Warning
Feedback

Saint Louis, MO Regional Weather

Expires:202004031200;;504116
ASUS43 KEAX 031115
RWREAX

WEATHER ROUNDUP FOR EASTERN KANSAS AND NORTHWEST MISSOURI
NATIONAL WEATHER SERVICE KANSAS CITY/PLEASANT HILL MO
600 AM CDT FRI APR 03 2020


MOZ041-047>049-056>058-063>065-088>090-097-031200-
...EASTERN AND SOUTHERN MISSOURI...
  
CITY           SKY/WX    TMP DP  RH WIND       PRES   REMARKS
ST. LOUIS INTL FAIR      56  45  66 SE10      30.02F                  
SPIRIT OF STL  FAIR      56  46  69 VRB5      30.01S                  
COLUMBIA       CLOUDY    56  47  71 SE9       29.97S                  
JEFFERSON CITY CLOUDY    58  47  66 E6        29.99R                  
MEXICO         CLOUDY    52  46  82 SE6       29.98R                  
HANNIBAL       FAIR      57  43  58 SE7       29.98S                  
ROLLA          CLOUDY    56  44  64 S10       30.00R                  
LEBANON        MOCLDY    57  46  67 S6        29.99S                  
OSAGE BEACH    CLOUDY    56  48  74 CALM      29.99R                  
SPRINGFIELD    CLOUDY    56  49  77 S8        29.97S                  
BRANSON        CLOUDY    54  54 100 S3        30.00R THUNDER          
JOPLIN         CLOUDY    50  44  80 N9        29.99R                  
WEST PLAINS    LGT RAIN  55  48  77 S8        30.02R                  
SIKESTON       FAIR      54  50  87 E3        30.05S                  

$$


SKY/WX - Weather  TMP - Temperature  DP - Dew Point  RH - Relative Humidity
WIND - Wind Direction/Speed PRES - Barometric Pressure VSB - Visibility
WCI - Wind Chill Index E13G22 Wind - East Wind 13 mph/Gusts of 22 mph
Saint Louis Weather Map
UTC Time: 4/3/2020, 11:23
Your Time: